Location: Mentone
(34.5413°N, 85.5351°W)
Time: 20:23:33
(UTC-05:00)

ATLAS 5 CENTAUR R/B - Visible Passes

Search period start: 24 October 2014 00:00
Search period end: 02 November 2014 23:00
Orbit: 714 x 949 km, 63.4° (Epoch: 19 October)

Date Brightness Start Highest point End Pass type
(mag) Time Alt. Az. Time Alt. Az. Time Alt. Az.
24 Oct 2.7 18:46:06 10° NNW 18:51:54 46° NE 18:57:52 10° SE visible
24 Oct 4.2 20:31:23 10° NW 20:36:26 27° WSW 20:40:37 14° SSW visible
25 Oct 2.7 18:27:33 10° NNW 18:33:17 44° NE 18:39:12 10° SE visible
25 Oct 4.1 20:12:42 10° NW 20:17:52 29° WSW 20:23:08 10° S visible
26 Oct 4.1 19:54:02 10° NW 19:59:18 31° WSW 20:04:41 10° S visible
27 Oct 4.1 19:35:22 10° NW 19:40:44 33° WSW 19:46:13 10° S visible
28 Oct 4.0 19:16:42 10° NW 19:22:10 35° WSW 19:27:44 10° S visible
29 Oct 4.0 18:58:03 10° NW 19:03:35 37° WSW 19:09:15 10° S visible
30 Oct 4.0 18:39:24 10° NW 18:45:01 39° WSW 18:50:45 10° S visible
31 Oct 3.9 18:20:45 10° NW 18:26:26 41° WSW 18:32:15 10° S visible
01 Nov 3.9 18:02:06 10° NW 18:07:51 44° WSW 18:13:44 10° S visible
